This demonstration page uses our WeatherBlox Daily Observations layout. Learn more.

Left ArrowRight Arrow

Hourly Observations for June 28, 2022

Temp ( °F °C ) Dew Point ( °F °C ) Humidity (%) Winds ( mph kmh ) Pressure ( in mb ) Visibility ( mi km ) Precip ( " mm )
12:53 am 00:53 Mostly Clear 77 25 56 13.3 48 48 ESE 9 15 30.08 1019 10 16 0.00 0.00
1:53 am 01:53 Cloudy 76 24.4 56 13.3 50 50 Calm 30.09 1019 10 16 0.00 0.00
2:53 am 02:53 Cloudy 74 23.3 59 15 60 60 WNW 8 13 30.10 1019 10 16 0.00 0.00
3:53 am 03:53 Mostly Cloudy 74 23.3 61 16.1 64 64 WNW 6 9 30.09 1019 10 16 0.00 0.00
4:53 am 04:53 Mostly Cloudy 73 22.8 59 15 62 62 SW 12 19 30.10 1019 10 16 0.00 0.00
5:53 am 05:53 Partly Cloudy 71 21.7 60 15.6 68 68 SW 7 11 30.09 1019 10 16 0.00 0.00
6:53 am 06:53 Partly Cloudy 71 21.7 61 16.1 71 71 Calm 30.09 1019 10 16 0.00 0.00
7:53 am 07:53 Sunny 72 22.2 61 16.1 68 68 Calm 30.10 1019 10 16 0.00 0.00
8:53 am 08:53 Sunny 76 24.4 60 15.6 58 58 SE 9 15 30.11 1020 10 16 0.00 0.00
9:53 am 09:53 Sunny 78 25.6 59 15 52 52 SSE 10 17 30.11 1020 10 16 0.00 0.00
10:53 am 10:53 Sunny 80 26.7 58 14.4 47 47 S 7 11 30.10 1019 10 16 0.00 0.00
11:53 am 11:53 Sunny 84 28.9 58 14.4 41 41 ESE 7 11 30.10 1019 10 16 0.00 0.00
12:53 pm 12:53 Sunny 87 30.6 57 13.9 36 36 VRB 7 11 30.08 1019 10 16 0.00 0.00
1:53 pm 13:53 Partly Cloudy 89 31.7 56 13.3 33 33 ESE 8 13 30.05 1018 10 16 0.00 0.00
2:53 pm 14:53 Mostly Cloudy 91 32.8 54 12.2 28 28 VRB 3 6 30.02 1017 10 16 0.00 0.00
3:53 pm 15:53 Mostly Sunny 90 32.2 52 11.1 27 27 ESE 8 13 30.00 1016 10 16 0.00 0.00
4:53 pm 16:53 Partly Cloudy 90 32.2 53 11.7 28 28 E 8 13 29.97 1015 10 16 0.00 0.00
5:53 pm 17:53 Partly Cloudy with Nearby Thunderstorms 90 32.2 51 10.6 26 26 SW 13 20 29.97 1015 10 16 0.00 0.00
6:07 pm 18:07 Mostly Cloudy with Thunderstorms 86 30 56 13.3 36 36 NW 15 24 29.92 1013 10 16 0.00 0.00
6:18 pm 18:18 Mostly Cloudy with Thunderstorms 82 27.8 59 15 46 46 NNE 20 31 29.95 1014 10 16 0.00 0.00
6:32 pm 18:32 Partly Cloudy with Nearby Thunderstorms 77 25 61 16.1 58 58 NNE 23 37 29.98 1015 9 14 0.00 0.00
6:53 pm 18:53 Mostly Cloudy with Nearby Thunderstorms 77 25 61 16.1 58 58 NNE 18 30 30.02 1017 10 16 0.00 0.00
7:41 pm 19:41 Cloudy with Nearby Thunderstorms 71 21.7 66 18.9 84 84 S 14 22 30.06 1018 10 16 0.01 0.25
7:53 pm 19:53 Cloudy 72 22.2 66 18.9 82 82 SSE 20 31 30.07 1018 10 16 0.01 0.25
8:53 pm 20:53 Mostly Cloudy 71 21.7 65 18.3 81 81 SE 16 26 30.06 1018 10 16 0.00 0.00
9:53 pm 21:53 Clear 72 22.2 61 16.1 68 68 SSE 9 15 30.04 1017 10 16 0.00 0.00
10:53 pm 22:53 Clear 71 21.7 63 17.2 76 76 E 8 13 30.06 1018 10 16 0.00 0.00
11:53 pm 23:53 Clear 71 21.7 64 17.8 79 79 SE 10 17 30.09 1019 10 16 0.00 0.00

Powered by AerisWeather